Monterosa Ski, Italy 16 day weather forecast

Slopes altitude range 1200 m - 3275m

Number of lifts: 23 Pistes: 135km

In some cases the lift and piste totals shown are for the ski domain (e.g. Three Valleys) rather than individual resort (e.g. Courchevel)

Overview

The 16 day weather forecast is fully updated 4 times every day.

    • Wed 26 JUN 2019
    • Wed 26
    • 23C 31C
    • Thu 27 JUN 2019
    • Thu 27
    • 25C 37C
    • Fri 28 JUN 2019
    • Fri 28
    • 26C 32C
    • Sat 29 JUN 2019
    • Sat 29
    • 20C 27C
    • Sun 30 JUN 2019
    • Sun 30
    • 21C 30C
    • Mon 01 JUL 2019
    • Mon 01
    • 23C 33C
    • Tue 02 JUL 2019
    • Tue 02
    • 21C 29C
    • Wed 03 JUL 2019
    • Wed 03
    • 20C 31C
    • Thu 04 JUL 2019
    • Thu 04
    • 21C 27C
    • Fri 05 JUL 2019
    • Fri 05
    • 21C 30C
    • Sat 06 JUL 2019
    • Sat 06
    • 22C 30C
    • Sun 07 JUL 2019
    • Sun 07
    • 20C 24C
    • Mon 08 JUL 2019
    • Mon 08
    • 18C 27C
    • Tue 09 JUL 2019
    • Tue 09
    • 21C 30C
    • Wed 10 JUL 2019
    • Wed 10
    • 21C 31C
    • Thu 11 JUL 2019
    • Thu 11
    • 21C 29C

Date:

Time Type 0°C level Temp Chill Snow Cloud Speed Gust Dir Press
3:00 4654m 19°C 19_4 0cm 5% 4mph 5mph 1023mB
6:00 4642m 19°C 19_5 0cm 2% 5mph 8mph 1024mB
9:00 4688m 23°C 23_7 0cm 0% 7mph 10mph 1023mB
12:00 4659m 31°C 31_6 0cm 0% 6mph 7mph 1023mB
15:00 4638m 32°C 32_6 0cm 0% 6mph 6mph 1022mB
18:00 4664m 32°C 32_4 0cm 0% 4mph 5mph 1022mB
21:00 4555m 22°C 22_3 0cm 0% 3mph 3mph 1024mB
0:00 4556m 22°C 22_4 0cm 0% 4mph 5mph 1023mB
3:00 4545m 21°C 21_4 0cm 73% 4mph 4mph 1022mB
6:00 4561m 21°C 21_3 0cm 56% 3mph 4mph 1022mB
9:00 4594m 25°C 25_2 0cm 0% 2mph 3mph 1021mB
12:00 4587m 37°C 37_1 0cm 1% 1mph 3mph 1019mB
15:00 4663m 38°C 38_5 0cm 0% 5mph 5mph 1018mB
18:00 4632m 38°C 38_5 0cm 0% 5mph 6mph 1016mB
21:00 4597m 23°C 23_4 0cm 0% 4mph 5mph 1018mB
0:00 4651m 23°C 23_2 0cm 0% 2mph 3mph 1016mB
3:00 4679m 22°C 22_1 0cm 0% 1mph 2mph 1015mB
6:00 4638m 21°C 21_3 0cm 0% 3mph 3mph 1015mB
9:00 4648m 26°C 26_7 0cm 0% 7mph 9mph 1015mB
12:00 4674m 32°C 32_7 0cm 0% 7mph 9mph 1014mB
15:00 4741m 33°C 33_6 0cm 0% 6mph 6mph 1014mB
18:00 4638m 33°C 33_5 0cm 0% 5mph 8mph 1014mB
21:00 4596m 22°C 22_3 0cm 0% 3mph 4mph 1016mB
0:00 4705m 21°C 21_6 0cm 8% 6mph 9mph 1017mB
3:00 4685m 19°C 19_7 0cm 61% 7mph 13mph 1017mB
6:00 4737m 18°C 18_8 0cm 42% 8mph 15mph 1018mB
9:00 4814m 20°C 20_10 0cm 21% 10mph 16mph 1018mB
12:00 4849m 27°C 27_9 0cm 16% 9mph 12mph 1017mB
15:00 4854m 28°C 28_8 0cm 0% 8mph 10mph 1017mB
18:00 4908m 28°C 28_5 0cm 0% 5mph 9mph 1017mB
21:00 4906m 20°C 20_4 0cm 0% 4mph 5mph 1019mB
0:00 4885m 19°C 19_5 0cm 0% 5mph 5mph 1019mB
3:00 4850m 18°C 18_5 0cm 0% 5mph 6mph 1019mB
6:00 4785m 17°C 17_6 0cm 0% 6mph 9mph 1019mB
9:00 4807m 21°C 21_7 0cm 0% 7mph 10mph 1020mB
12:00 4785m 30°C 30_5 0cm 0% 5mph 5mph 1019mB
15:00 4776m 32°C 32_2 0cm 14% 2mph 2mph 1018mB
18:00 4726m 32°C 32_1 0cm 46% 1mph 2mph 1018mB
21:00 4664m 21°C 21_1 0cm 79% 1mph 2mph 1020mB
0:00 4652m 20°C 20_1 0cm 57% 1mph 2mph 1020mB
3:00 4607m 19°C 19_2 0cm 18% 2mph 3mph 1019mB
6:00 4566m 19°C 19_2 0cm 40% 2mph 3mph 1019mB
9:00 4546m 23°C 23_2 0cm 25% 2mph 1mph 1018mB
12:00 4534m 33°C 33_4 0cm 61% 4mph 4mph 1017mB
15:00 4583m 32°C 32_8 0cm 89% 8mph 10mph 1016mB
18:00 4571m 32°C 32_5 0cm 74% 5mph 9mph 1015mB
21:00 4436m 19°C 19_5 0cm 100% 5mph 6mph 1017mB
0:00 4280m 17°C 17_1 0cm 100% 1mph 4mph 1018mB
3:00 4391m 17°C 17_2 0cm 100% 2mph 4mph 1016mB
6:00 4341m 17°C 17_1 0cm 90% 1mph 1mph 1016mB
9:00 4345m 21°C 21_3 0cm 62% 3mph 3mph 1015mB
12:00 4410m 29°C 29_8 0cm 55% 8mph 9mph 1014mB
15:00 4393m 28°C 28_8 0cm 98% 8mph 12mph 1013mB
18:00 4320m 28°C 28_5 0cm 99% 5mph 8mph 1014mB
21:00 4044m 18°C 18_3 0cm 97% 3mph 4mph 1016mB
0:00 4177m 18°C 18_3 0cm 98% 3mph 4mph 1016mB
3:00 4121m 17°C 17_2 0cm 78% 2mph 3mph 1015mB
6:00 4118m 16°C 16_3 0cm 58% 3mph 3mph 1016mB
9:00 4169m 20°C 20_3 0cm 0% 3mph 2mph 1016mB
12:00 4240m 31°C 31_2 0cm 2% 2mph 4mph 1016mB
15:00 4195m 28°C 28_6 0cm 45% 6mph 7mph 1016mB
18:00 4162m 28°C 28_5 0cm 29% 5mph 8mph 1016mB
21:00 4108m 21°C 21_5 0cm 60% 5mph 10mph 1018mB
0:00 3861m 20°C 20_5 0cm 80% 5mph 10mph 1018mB
3:00 4028m 20°C 20_2 0cm 100% 2mph 4mph 1017mB
6:00 4099m 19°C 19_4 0cm 80% 4mph 6mph 1018mB
9:00 4049m 21°C 21_2 0cm 57% 2mph 3mph 1018mB
12:00 4185m 27°C 27_5 0cm 68% 5mph 5mph 1017mB
15:00 4338m 28°C 28_5 0cm 0% 5mph 3mph 1016mB
18:00 4322m 28°C 28_4 0cm 0% 4mph 5mph 1016mB
21:00 4323m 22°C 22_3 0cm 34% 3mph 4mph 1017mB
0:00 4273m 21°C 21_3 0cm 47% 3mph 5mph 1018mB
3:00 4290m 19°C 19_4 0cm 0% 4mph 5mph 1017mB
6:00 4332m 18°C 18_5 0cm 0% 5mph 8mph 1018mB
9:00 4356m 21°C 21_4 0cm 0% 4mph 5mph 1018mB
12:00 4382m 30°C 30_1 0cm 0% 1mph 4mph 1017mB
15:00 4466m 31°C 31_4 0cm 0% 4mph 6mph 1016mB
18:00 4457m 31°C 31_5 0cm 0% 5mph 7mph 1016mB
21:00 4437m 22°C 22_5 0cm 23% 5mph 6mph 1017mB
0:00 4380m 20°C 20_4 0cm 42% 4mph 5mph 1016mB
Afternoon 0mm 0 4587m 30°C 30_3 0cm 7% 3mph 4mph 1013mB
Morning 0.0208333mm 0.125 4787m 21°C 21_20 0cm 0% 20mph 33mph 1018mB
Afternoon 0mm 0 4876m 24°C 24_13 0cm 2% 13mph 16mph 1020mB
Morning 0mm 0 4693m 16°C 16_2 0cm 0% 2mph 3mph 1020mB
Afternoon 0mm 0 4583m 27°C 27_6 0cm 22% 6mph 6mph 1017mB
Morning 0.3125mm 0.9375 4569m 19°C 19_1 0cm 50% 1mph 1mph 1018mB
Afternoon 0mm 0 4594m 30°C 30_3 0cm 0% 3mph 5mph 1017mB
Morning 0.0208333mm 0.0625 4388m 20°C 20_1 0cm 20% 1mph 3mph 1018mB
Afternoon 0mm 0 4425m 31°C 31_4 0cm 16% 4mph 6mph 1015mB
Morning 0.229167mm 0.6875 4391m 19°C 19_0 0cm 1% 0mph 1mph 1015mB
Afternoon 0mm 0 4296m 29°C 29_5 0cm 0% 5mph 5mph 1013mB
Morning 0.25mm 0.8125 4170m 19°C 19_5 0cm 54% 5mph 6mph 1010mB

16 day outlook at a glance

Forecast issued: 6/26/2019 8:13:10 AM

Chat

Your comments and questions. In a resort? Let us know what it's like!


Characters left 250

For terms and conditions see Readers Comments on the Cookie and privacy policy page.